Change the Weather History Date:

Sunday, October 21, 2012

  Actual Average Record
Temperature  
Mean Temperature 49 °F -  
Max Temperature 56 °F 44 °F 71 °F (2007)
Min Temperature 42 °F 30 °F 28 °F (1997)
Degree Days  
Heating Degree Days 16    
Moisture  
Dew Point 43 °F    
Average Humidity 79    
Maximum Humidity 93    
Minimum Humidity 52    
Precipitation  
Precipitation 0.00 in 0.11 in - ()
Sea Level Pressure  
Sea Level Pressure 29.80 in    
Wind  
Wind Speed 10 mph ()    
Max Wind Speed 24 mph    
Max Gust Speed 31 mph    
Visibility 14.8 miles    
Events Rain    
Averages and records for this station are not official NWS values.
T = Trace of Precipitation, MM = Missing Value Source: Averaged Metar Reports

Daily Weather History Graph

Daily Weather History Graph

Search for Another Location

Airport or City:

Trip Planner

Search our weather history database for the weather conditions in past years. The results will help you decide how hot, cold, wet, or windy it might be!

Date:

Astronomy

Oct. 21, 2012 Rise Set
Actual Time 7:27 AM EDT 6:06 PM EDT
Civil Twilight 6:57 AM EDT 6:36 PM EDT
Nautical Twilight 6:22 AM EDT 7:10 PM EDT
Astronomical Twilight 5:48 AM EDT 7:44 PM EDT
Moon 1:52 PM EDT (10/21) 11:53 PM EDT (10/21)
Length of Visible Light 11h 39m
Length of Day
10h 38m
Waxing Crescent, 45% of the Moon is Illuminated
Oct 21
Waxing Crescent
Oct 21
First Quarter
Oct 29
Full
Nov 6
Last Quarter
Nov 13
New

Hourly Weather History & Observations

Time (EDT) Temp. Windchill Dew Point Humidity Pressure Visibility Wind Dir Wind Speed Gust Speed Precip Events Conditions
12:00 AM 42.8 °F 38.0 °F 41.0 °F 93% 29.66 in 15.0 mi SSW 8.1 mph - N/A   Scattered Clouds
1:00 AM 44.6 °F 40.7 °F 42.8 °F 93% 29.67 in 15.0 mi SSW 6.9 mph - N/A   Mostly Cloudy
2:00 AM 45 °F - 43 °F 88% 29.67 in 15 mi SSW 10.4 mph - -   Mostly Cloudy
2:00 AM 44.6 °F 39.2 °F 42.8 °F 93% 29.67 in 15.0 mi SSW 10.4 mph - N/A   Mostly Cloudy
3:00 AM 44.6 °F 39.7 °F 42.8 °F 93% 29.68 in 15.0 mi SSW 9.2 mph - N/A   Mostly Cloudy
4:00 AM 46.4 °F 41.5 °F 42.8 °F 87% 29.70 in 15.0 mi SW 10.4 mph - N/A   Mostly Cloudy
4:18 AM 46.4 °F 41.9 °F 44.6 °F 93% 29.71 in 10.0 mi SW 9.2 mph - N/A Rain Light Rain Showers
4:41 AM 46.4 °F 41.1 °F 44.6 °F 93% 29.71 in 15.0 mi WSW 11.5 mph - N/A   Mostly Cloudy
5:00 AM 46.4 °F 41.5 °F 44.6 °F 93% 29.72 in 15.0 mi WSW 10.4 mph - N/A   Mostly Cloudy
6:00 AM 48.2 °F - 42.8 °F 82% 29.75 in 15.0 mi WSW 12.7 mph - N/A   Mostly Cloudy
7:00 AM 46.4 °F 41.5 °F 42.8 °F 87% 29.77 in 15.0 mi SW 10.4 mph - N/A   Mostly Cloudy
8:00 AM 46 °F - 42 °F 80% 29.78 in 15 mi SW 11.5 mph - -   Partly Cloudy
8:00 AM 46.4 °F 41.9 °F 41.0 °F 81% 29.78 in 15.0 mi SW 9.2 mph - N/A   Mostly Cloudy
9:00 AM 48.2 °F - 42.8 °F 82% 29.79 in 15.0 mi SW 12.7 mph - N/A   Mostly Cloudy
10:00 AM 50.0 °F - 42.8 °F 76% 29.80 in 15.0 mi WSW 16.1 mph - N/A   Mostly Cloudy
11:00 AM 51.8 °F - 42.8 °F 71% 29.81 in 15.0 mi West 12.7 mph 19.6 mph N/A   Overcast
12:00 PM 53.6 °F - 44.6 °F 72% 29.81 in 15.0 mi West 15.0 mph 24.2 mph N/A   Overcast
1:00 PM 55.4 °F - 42.8 °F 63% 29.81 in 15.0 mi West 19.6 mph 31.1 mph N/A   Overcast
2:00 PM 53 °F - 41 °F 52% 29.81 in 15 mi West 20.7 mph - -   Overcast
2:00 PM 53.6 °F - 41.0 °F 62% 29.81 in 15.0 mi West 24.2 mph - N/A   Overcast
3:00 PM 53.6 °F - 41.0 °F 62% 29.83 in 15.0 mi WNW 17.3 mph 25.3 mph N/A   Mostly Cloudy
4:00 PM 53.6 °F - 41.0 °F 62% 29.84 in 15.0 mi West 10.4 mph 25.3 mph N/A   Overcast
5:00 PM 53.6 °F - 41.0 °F 62% 29.86 in 15.0 mi West 13.8 mph 20.7 mph N/A   Mostly Cloudy
5:30 PM 51.8 °F - 42.8 °F 71% 29.87 in 15.0 mi WNW 17.3 mph 25.3 mph N/A Rain Light Rain Showers
6:00 PM 51.8 °F - 44.6 °F 76% 29.89 in 15.0 mi WNW 15.0 mph 25.3 mph N/A Rain Light Rain Showers
6:23 PM 48.2 °F - 44.6 °F 87% 29.89 in 15.0 mi West 9.2 mph - N/A   Mostly Cloudy
7:00 PM 50.0 °F - 44.6 °F 82% 29.91 in 15.0 mi West 11.5 mph - N/A   Mostly Cloudy
8:00 PM 50 °F - 43 °F 70% 29.92 in 15 mi West 12.7 mph - -   Partly Cloudy
8:00 PM 50.0 °F - 42.8 °F 76% 29.92 in 15.0 mi West 10.4 mph 18.4 mph N/A   Mostly Cloudy
9:00 PM 50.0 °F - 42.8 °F 76% 29.94 in 15.0 mi West 10.4 mph - N/A   Mostly Cloudy
10:00 PM 48.2 °F - 41.0 °F 76% 29.95 in 15.0 mi West 9.2 mph - N/A   Mostly Cloudy
11:00 PM 48.2 °F - 42.8 °F 82% 29.95 in 15.0 mi West 8.1 mph - N/A   Mostly Cloudy